Regional Weather Roundup
Issued by NWS Sterling, VA

Home | Current Version | Previous Version | Text Only | Print | Product List | Glossary On
Versions: 1 2 3 4 5 6 7 8 9 10 11 12 13 14 15 16 17 18 19 20 21 22 23 24 25 26 27 28 29 30 31 32 33 34 35 36 37 38 39 40 41 42 43 44 45 46 47 48 49 50
000
ASUS41 KLWX 060910
RWRLWX

REGIONAL WEATHER ROUNDUP
NATIONAL WEATHER SERVICE BALTIMORE MD/WASHINGTON DC
500 AM EDT MON JUL 06 2015

Note: "FAIR" indicates few or no clouds below 12,000 feet
with no significant weather and/or obstructions to visibility.
 TC=TEMPERATURE CELSIUS

 * =Non NWS site. Station does not report precipitation (e.g. rain,
    snow, etc.), thunder, or fog.

DCZ001-MDZ009-015-VAZ040>042-051-053>054-061000-
WASHINGTON METRO

CITY           SKY/WX    TMP DP  RH WIND       PRES   REMARKS
WASHINGTON NAT LGT RAIN  77  72  84 E5        30.10S
DULLES         CLOUDY    72  72 100 CALM      30.10S
ANDREWS AFB    CLOUDY    72  72 100 E6        30.09F
FT BELVOIR     LGT RAIN  73  72  96 E1        30.09S
QUANTICO       CLOUDY    75  71  87 SE8       30.09F
COLLEGE PARK*  CLOUDY    72  72 100 CALM      30.10S
LEESBURG*      CLOUDY    72  72 100 CALM      30.11S FOG
MANASSAS*      CLOUDY    73  73 100 CALM        N/A
GAITHERSBURG*  CLOUDY    72  70  94 CALM      30.15S

$$

MDZ006>007-011-014-061000-
BALTIMORE METRO

CITY           SKY/WX    TMP DP  RH WIND       PRES   REMARKS
BWI AIRPORT    CLOUDY    73  72  96 E3        30.10S FOG
MD SCIENCE CTR   N/A     75  73  93 MISG      30.11F
MARTIN STATE   DRIZZLE   73  73 100 E3        30.12F
ANNAPOLIS      CLOUDY    75  70  84 SE8       30.09F
FORT MEADE*    CLOUDY    70  70 100 E3        30.12F

$$

MDZ012-015-019>023-061000-
MARYLAND EASTERN SHORE

CITY           SKY/WX    TMP DP  RH WIND       PRES   REMARKS
OCEAN CITY     LGT RAIN  74  71  91 S3        30.12S
SALISBURY      LGT RAIN  71  71 100 E5        30.11S
BAY BRIDGE AP*   N/A     72  72 100 E5        30.10F
CAMBRIDGE*     CLOUDY    72  70  94 E3        30.10F
EASTON*        CLOUDY   N/A N/A N/A SE3       30.14F HAZE

$$

MDZ017>025-061000-
SOUTHERN MARYLAND

CITY           SKY/WX    TMP DP  RH WIND       PRES   REMARKS
PATUXENT RIVER LGT RAIN  75  72  90 SE6       30.09S
ST INIGOES     NOT AVBL
LEONARDTOWN*   CLOUDY    72  70  94 CALM      30.11S

$$

MDZ003>005-061000-
NORTH CENTRAL MARYLAND

CITY           SKY/WX    TMP DP  RH WIND       PRES   REMARKS
FREDERICK*     CLOUDY    70  70 100 CALM      30.13S FOG
HAGERSTOWN APT CLOUDY    72  69  90 E3        30.11S FOG
WESTMINSTER*   CLOUDY    72  70  94 CALM      30.13S FOG

$$

MDZ501>502-061000-
WESTERN MARYLAND

CITY           SKY/WX    TMP DP  RH WIND       PRES   REMARKS
OAKLAND*       CLOUDY    63 N/A N/A SE7       30.16S FOG
CUMBERLAND*    CLOUDY    72  68  88 CALM      30.13S

$$

VAZ025>031-061000-
SHENANDOAH VALLEY

CITY           SKY/WX    TMP DP  RH WIND       PRES   REMARKS
WINCHESTER*    CLOUDY    72  70  94 CALM      30.10S FOG
FRONT ROYAL*   PTSUNNY   68  68 100 CALM      30.09S
LURAY*         LGT RAIN  70  70 100 CALM      30.10F
NEW MARKET*    CLOUDY    69  69  98 NE3       30.08F
STAUNTON*      CLOUDY    71  70  95 CALM      30.12S FOG
WAYNESBORO*    CLOUDY    68  67  98 SE5       30.11F

$$

WVZ021-048>050-054>055-061000-
EASTERN WEST VIRGINIA PANHANDLE

CITY           SKY/WX    TMP DP  RH WIND       PRES   REMARKS
MARTINSBURG    CLOUDY    72  70  93 E3        30.11S FOG
PETERSBURG*    DRIZZLE   70  68  92 CALM      30.10S

$$

VAZ036>039-050-061000-
CENTRAL FOOTHILLS

CITY           SKY/WX    TMP DP  RH WIND       PRES   REMARKS
CHARLOTTESVILL MOCLDY    69  68  96 N3        30.09F FOG
CULPEPER*      CLOUDY    70  70 100 CALM      30.10S FOG
ORANGE*        MOCLDY    72  70  94 CALM      30.11S FOG
GORDONSVILLE*  CLOUDY    70  70 100 CALM      30.09S FOG
WARRENTON*     CLOUDY    73  73 100 CALM      30.10R FOG

$$

VAZ055>057-061000-
NORTH AND CENTRAL PIEDMONT

CITY           SKY/WX    TMP DP  RH WIND       PRES   REMARKS
FREDERICKSBRG* CLOUDY    75  75 100 CALM      30.08S
STAFFORD*      CLOUDY    72  70  95 CALM      30.13S FOG

$$

NCZ024-NYZ072-PAZ021-071-VAZ022-071-061000-
OTHER REGIONAL OBSERVATIONS

CITY           SKY/WX    TMP DP  RH WIND       PRES   REMARKS
NEW YORK CITY  MOCLDY    72  65  78 W3        30.17R
PHILADELPHIA   MOCLDY    72  68  87 E5        30.14S
PITTSBURGH     CLOUDY    72  66  81 SE5       30.07R
ROANOKE        CLOUDY    69  69 100 E8        30.10S
RICHMOND       CLOUDY    72  70  93 CALM      30.09R
RALEIGH        MOCLDY    71  69  93 SE5       30.09F

$$

ANZ530>537-061000-
MARINE OBSERVATIONS

STATION/POSITION TIME  TEMP    WIND        PRES
                       AIR SEA DIR/SP/G
                 (UTC) (F)     (DEG/KT/KT) (MB)
THOMAS PT LIGHT  NOT AVBL
BALT KEY BRIDGE  0800   75     120/  8/  9 1019.4F
COVE POINT       0800   76     120/  7/ 10 1019.8F
LEWISETTA        0800   76 80  150/  7/  8 1018.5F
SOLOMONS ISLAND  0800      81                N/A
PINEY POINT      0800          140/  6/  7   N/A

$$




USA.gov is the U.S. government's official web portal to all federal, state and local government web resources and services.